Weather Roundup
Issued by NWS Springfield, MO

Home | Current Version | Previous Version | Text Only | Print | Product List | Glossary On
Versions: 1 2 3 4 5 6 7 8 9 10 11 12 13 14 15 16 17 18 19 20 21 22 23 24 25 26 27 28 29 30 31 32 33 34 35 36 37 38 39 40 41 42 43 44 45 46 47 48 49 50
000
NZUS99 KSGF 050607
HRRSGF

HOURLY WEATHER
NATIONAL WEATHER SERVICE SPRINGFIELD MO
100 AM CDT THU MAY 05 2016

......SGF CWA......

CITY           SKY/WX    TMP DP  RH WIND       PRES   REMARKS
SPRINGFIELD    CLEAR     49  38  65 NW5       29.99S
6HR MIN TEMP:  49; 6HR MAX TEMP:  67;

JOPLIN         PTCLDY    47  43  86 CALM      30.02R
6HR MIN TEMP:  47; 6HR MAX TEMP:  68;

WEST PLAINS    CLEAR     50  35  56 NW5       29.98R
6HR MIN TEMP:  50; 6HR MAX TEMP:  67;

ROLLA          PTCLDY    43  36  76 W7        29.93S
6HR MIN TEMP:  43; 6HR MAX TEMP:  63;


......SURROUNDING SGF CWA......

CITY           SKY/WX    TMP DP  RH WIND       PRES   REMARKS
CHANUTE        CLEAR     48  41  76 NW3       30.03R
PARSONS        CLEAR     46  44  93 CALM      30.04R
COFFEYVILLE    CLEAR     51  44  77 NW3       30.03R
EMPORIA        CLEAR     52  41  66 W5        30.04R
GROVE OK       CLEAR     50  45  81 CALM      30.03S
ROGERS AR      CLEAR     52  40  63 CALM      30.02S
SILOAM SPRINGS CLEAR     50  36  57 CALM      30.03R
HARRISON AR    CLEAR     53  39  59 W3        30.00R
NEAR YELLVILLE CLEAR    N/A N/A N/A NW3       29.95R

......KANSAS AND MISSOURI......

CITY           SKY/WX    TMP DP  RH WIND       PRES   REMARKS
KANSAS CTY INT CLEAR     52  39  61 W6        30.01S
DOWNTOWN KC    CLEAR     52  44  74 CALM      30.00S
COLUMBIA       CLEAR     50  38  63 NW7       29.94F
SEDALIA        CLEAR     53  38  56 W8        29.99S
ST JOSEPH      CLEAR     48  43  82 CALM      30.01S
ST LOUIS       PTCLDY    52  39  61 NW7       29.90S
SPIRIT OF STL  PTCLDY    48  41  76 CALM      29.90R
KIRKSVILLE     CLEAR     49  36  61 NW7       29.96S
WICHITA        CLEAR     49  42  77 W5        30.05S
OLATHE         CLEAR     53  39  59 NW5       30.02S

......TENNESSEE......

CITY           SKY/WX    TMP DP  RH WIND       PRES   REMARKS
MEMPHIS        CLEAR     62  43  49 N6        29.91R
NASHVILLE      PTCLDY    51  41  68 NW7       29.85F

......ARKANSAS.......

CITY           SKY/WX    TMP DP  RH WIND       PRES   REMARKS
FAYETTEVILLE   PTCLDY    43  42  97 S3        30.02R
FT SMITH       CLEAR     55  42  61 CALM      30.00R
LITTLE ROCK    CLEAR     61  40  45 NW9       29.95R

......OKLAHOMA.......

CITY           SKY/WX    TMP DP  RH WIND       PRES   REMARKS
TULSA          CLEAR     57  46  66 CALM      30.01S
PONCA CITY     CLEAR     46  43  89 CALM      30.04S
MCALESTER      PTCLDY    49  45  86 CALM      30.02S
OKLAHOMA CITY  PTCLDY    61  40  45 N6        30.05R

......IOWA............

CITY           SKY/WX    TMP DP  RH WIND       PRES   REMARKS
DES MOINES     CLEAR     54  34  46 N6        29.99R
QUAD CITIES    CLEAR     51  34  52 NE6       29.92R

......ILLINOIS........

CITY           SKY/WX    TMP DP  RH WIND       PRES   REMARKS
QUINCY         PTCLDY    46  37  71 NW8       29.92R
CHICAGO        MOCLDY    43  33  68 N22G32    29.88S




USA.gov is the U.S. government's official web portal to all federal, state and local government web resources and services.